Weather History for Mitchell, SD

Change the Weather History Date:

Monday, February 18, 2013

  Actual Average Record
Temperature  
Mean Temperature 23 °F 25 °F  
Max Temperature 38 °F 35 °F 71 °F (1930)
Min Temperature 7 °F 15 °F -25 °F (1938)
Degree Days  
Heating Degree Days 42 40  
Month to date heating degree days 695 770  
Since 1 July heating degree days 4976 5137  
Cooling Degree Days 0 0  
Month to date cooling degree days 0 0  
Year to date cooling degree days 0 0  
Moisture  
Dew Point 15 °F    
Average Humidity 73    
Maximum Humidity 79    
Minimum Humidity 66    
Precipitation  
Precipitation T in 0.01 in 1.56 in (1962)
Month to date precipitation 1.07 0.22  
Year to date precipitation 1.29 0.44  
Snow  
Snow T in - 15.00 in (1962)
Month to date snowfall 11.1  
Since 1 July snowfall 24.3  
Snow Depth 6.00 in    
Sea Level Pressure  
Sea Level Pressure 29.93 in    
Wind  
Wind Speed 24 mph (NW)    
Max Wind Speed 41 mph    
Max Gust Speed 46 mph    
Visibility 9 miles    
Events Snow    
T = Trace of Precipitation, MM = Missing Value Source: NWS Daily Summary

Daily Weather History Graph

Daily Weather History Graph

Search for Another Location

Airport:

Trip Planner

Search our weather history database for the weather conditions in past years. The results will help you decide how hot, cold, wet, or windy it might be!

Date:

Astronomy

Feb. 18, 2013 Rise Set
Actual Time 7:26 AM CST 6:06 PM CST
Civil Twilight 6:56 AM CST 6:36 PM CST
Nautical Twilight 6:23 AM CST 7:09 PM CST
Astronomical Twilight 5:49 AM CST 7:42 PM CST
Moon 11:48 AM CST (2/18) 2:12 AM CST (2/18)
Length of Visible Light 11h 39m
Length of Day
10h 40m
First Quarter, 58% of the Moon is Illuminated
Feb 18
First Quarter
Feb 25
Full
Mar 4
Last Quarter
Mar 11
New
Mar 19
First Quarter

Hourly Weather History & Observations

Time (CST) Temp. Windchill Dew Point Humidity Pressure Visibility Wind Dir Wind Speed Gust Speed Precip Events Conditions
12:53 AM 37.9 °F 29.6 °F 30.9 °F 76% 29.66 in 10.0 mi West 13.8 mph - N/A   Clear
1:53 AM 37.0 °F 28.9 °F 30.9 °F 79% 29.66 in 10.0 mi WNW 12.7 mph - N/A   Clear
2:53 AM 37.0 °F 30.4 °F 30.0 °F 76% 29.69 in 10.0 mi West 9.2 mph - N/A   Overcast
3:53 AM 36.0 °F 26.7 °F 30.0 °F 79% 29.70 in 10.0 mi WNW 15.0 mph - N/A   Overcast
4:43 AM 35.6 °F 24.8 °F 28.4 °F 75% 29.66 in 10.0 mi NW 19.6 mph - N/A   Mostly Cloudy
4:53 AM 35.1 °F 23.3 °F 28.9 °F 78% 29.69 in 10.0 mi NW 23.0 mph - N/A   Scattered Clouds
5:53 AM 34.0 °F 20.1 °F 27.0 °F 75% 29.73 in 10.0 mi NW 31.1 mph 41.4 mph N/A   Overcast
6:53 AM 30.0 °F 14.9 °F 23.0 °F 75% 29.78 in 10.0 mi NNW 29.9 mph 43.7 mph N/A   Overcast
8:53 AM 23.0 °F 6.3 °F 16.0 °F 74% 29.88 in 10.0 mi NNW 26.5 mph 39.1 mph 0.00 in   Overcast
9:39 AM 21.2 °F 2.4 °F 14.0 °F 74% 29.85 in 10.0 mi NNW 32.2 mph 41.4 mph 0.00 in   Scattered Clouds
9:53 AM 21.9 °F 5.1 °F 14.0 °F 72% 29.91 in 10.0 mi NNW 25.3 mph 39.1 mph 0.00 in   Scattered Clouds
10:53 AM 21.0 °F 2.2 °F 12.0 °F 68% 29.94 in 10.0 mi NNW 32.2 mph 44.9 mph N/A   Mostly Cloudy
11:53 AM 21.9 °F 2.6 °F 12.0 °F 66% 29.97 in 10.0 mi NW 35.7 mph 46.0 mph 0.00 in   Overcast
12:53 PM 21.0 °F 3.9 °F 12.0 °F 68% 29.97 in 10.0 mi NNW 25.3 mph 38.0 mph 0.00 in   Overcast
1:45 PM 21.2 °F 1.9 °F 12.2 °F 68% 29.93 in 2.5 mi NNW 34.5 mph 42.6 mph 0.00 in Snow Light Snow
1:53 PM 21.0 °F 2.4 °F 12.0 °F 68% 29.99 in 9.0 mi NNW 31.1 mph 40.3 mph 0.00 in   Overcast
2:53 PM 19.9 °F 1.8 °F 12.0 °F 71% 30.01 in 6.0 mi NNW 27.6 mph 38.0 mph 0.00 in Snow Light Snow
3:53 PM 19.0 °F -0.3 °F 10.0 °F 68% 30.03 in 10.0 mi NNW 31.1 mph 38.0 mph 0.00 in   Overcast
4:53 PM 19.0 °F 2.0 °F 10.9 °F 71% 30.05 in 10.0 mi NNW 23.0 mph - N/A   Overcast
5:53 PM 17.1 °F 0.1 °F 10.9 °F 77% 30.08 in 6.0 mi NNW 20.7 mph - 0.00 in Snow Light Snow
6:53 PM 14.0 °F -2.5 °F 8.1 °F 77% 30.11 in 10.0 mi NNW 17.3 mph 23.0 mph 0.00 in   Overcast
7:53 PM 12.0 °F -7.3 °F 3.9 °F 70% 30.14 in 10.0 mi NNW 23.0 mph 33.4 mph 0.00 in   Overcast
9:53 PM 8.1 °F -13.4 °F 1.0 °F 73% 30.19 in 10.0 mi NNW 25.3 mph 32.2 mph N/A   Clear
10:53 PM 7.0 °F -14.0 °F -0.9 °F 70% 30.21 in 10.0 mi NW 23.0 mph 29.9 mph N/A   Clear
11:14 PM 6.8 °F -14.3 °F -0.4 °F 72% 30.14 in 10.0 mi NW 23.0 mph - N/A   Mostly Cloudy
11:53 PM 7.0 °F -14.5 °F -0.0 °F 73% 30.23 in 10.0 mi NW 24.2 mph - N/A   Overcast